TimeEST,TemperatureF,Dew PointF,Humidity,Sea Level PressureIn,VisibilityMPH,Wind Direction,Wind SpeedMPH,Gust SpeedMPH,PrecipitationIn,Events,Conditions,WindDirDegrees,DateUTC
12:51 AM,-7.1,-14.1,72,30.37,10.0,SSE,3.5,-,N/A,,Clear,160,2014-03-04 05:51:00
1:51 AM,-9.0,-15.0,75,30.37,9.0,Calm,Calm,-,N/A,,Clear,0,2014-03-04 06:51:00
2:51 AM,-9.9,-15.0,78,30.38,9.0,Calm,Calm,-,N/A,,Clear,0,2014-03-04 07:51:00
3:51 AM,-11.9,-17.0,78,30.37,10.0,South,4.6,-,N/A,,Clear,180,2014-03-04 08:51:00
4:51 AM,-13.0,-18.0,78,30.37,10.0,Calm,Calm,-,N/A,,Clear,0,2014-03-04 09:51:00
5:51 AM,-13.0,-16.1,86,30.38,8.0,Calm,Calm,-,N/A,,Clear,0,2014-03-04 10:51:00
6:51 AM,-14.1,-18.0,82,30.39,8.0,Calm,Calm,-,N/A,,Clear,0,2014-03-04 11:51:00
7:51 AM,-9.9,-13.0,86,30.40,3.0,Calm,Calm,-,N/A,,Clear,0,2014-03-04 12:51:00
8:51 AM,-4.0,-11.9,69,30.40,8.0,Calm,Calm,-,N/A,,Clear,0,2014-03-04 13:51:00
9:51 AM,3.0,-9.0,57,30.38,9.0,Calm,Calm,-,N/A,,Clear,0,2014-03-04 14:51:00
10:51 AM,9.0,-9.9,42,30.36,10.0,NE,3.5,-,N/A,,Clear,40,2014-03-04 15:51:00
11:51 AM,14.0,-7.1,39,30.33,10.0,NE,4.6,-,N/A,,Partly Cloudy,40,2014-03-04 16:51:00
12:51 PM,18.0,-7.1,33,30.30,10.0,NE,3.5,-,N/A,,Clear,50,2014-03-04 17:51:00
1:51 PM,19.0,-7.1,31,30.30,10.0,North,4.6,-,N/A,,Overcast,360,2014-03-04 18:51:00
2:51 PM,19.0,-8.0,30,30.30,10.0,Calm,Calm,-,N/A,,Overcast,0,2014-03-04 19:51:00
3:51 PM,19.0,-0.9,42,30.31,10.0,NNE,3.5,-,N/A,,Overcast,20,2014-03-04 20:51:00
4:51 PM,18.0,1.9,50,30.32,10.0,West,5.8,-,N/A,,Overcast,270,2014-03-04 21:51:00
5:51 PM,17.1,5.0,59,30.33,10.0,WNW,5.8,-,N/A,,Overcast,300,2014-03-04 22:51:00
6:51 PM,15.1,6.1,68,30.33,10.0,North,4.6,-,N/A,,Mostly Cloudy,10,2014-03-04 23:51:00
7:51 PM,14.0,6.1,71,30.34,7.0,NW,4.6,-,N/A,,Overcast,320,2014-03-05 00:51:00
8:35 PM,12.9,8.1,81,30.24,2.5,NNE,4.6,-,0.00,Snow,Light Snow,20,2014-03-05 01:35:00
8:51 PM,12.9,8.1,81,30.34,2.5,NE,3.5,-,0.00,Snow,Light Snow,50,2014-03-05 01:51:00
9:08 PM,12.0,8.1,84,30.24,3.0,ENE,3.5,-,0.00,Snow,Light Snow,60,2014-03-05 02:08:00
9:20 PM,12.0,8.1,84,30.24,4.0,NE,4.6,-,0.00,Snow,Light Snow,50,2014-03-05 02:20:00
9:51 PM,12.0,8.1,84,30.33,5.0,Calm,Calm,-,0.00,Snow,Light Snow,0,2014-03-05 02:51:00
10:51 PM,12.0,8.1,84,30.32,6.0,Calm,Calm,-,0.00,Snow,Light Snow,0,2014-03-05 03:51:00
11:51 PM,10.9,8.1,88,30.31,5.0,Calm,Calm,-,0.00,Snow,Light Snow,0,2014-03-05 04:51:00